Regional Weather Roundup
Issued by NWS

Home | Current Version | Previous Version | Text Only | Print | Product List | Glossary On
Versions: 1 2 3 4 5 6 7 8 9 10 11 12 13 14 15 16 17 18 19 20 21 22 23 24 25 26 27 28 29 30 31 32 33 34 35 36 37 38 39 40 41 42 43 44 45 46 47 48 49 50
000
ASUS44 KFWD 292115
RWRTX
NORTH TEXAS HOURLY WEATHER ROUNDUP
NATIONAL WEATHER SERVICE FORT WORTH TX
400 PM CDT FRI JUL 29 2016

NOTE: "FAIR" INDICATES FEW OR NO CLOUDS BELOW 12,000 FEET WITH NO
SIGNIFICANT WEATHER AND/OR OBSTRUCTIONS TO VISIBILITY.

TXZ118-119-292200-
DALLAS/FORT WORTH METROPLEX

CITY           SKY/WX    TMP DP  RH WIND       PRES   REMARKS
DFW AIRPORT    PTSUNNY   94  69  44 S10       29.94F HX  99
DALLAS LOVE    PTSUNNY   94  70  45 SW8       29.93F HX 100
FTW MEACHAM    PTSUNNY   96  70  42 S8        29.95F HX 102
DAL-EXECUTIVE  MOSUNNY   91  72  53 S8        29.96F HX  98
FTW-ALLIANCE   PTSUNNY   94  69  44 SW8       29.94F HX  99
FTW-NAS-JRB    PTSUNNY   91  70  49 S6        29.95F HX  96
FTW-SPINKS     MOSUNNY   91  72  52 S8        29.98F HX  98
ARLINGTON      MOSUNNY   91  73  55 S12       29.95F HX  99
GRAND PRAIRIE  SUNNY     90  72  55 S7        29.97F HX  96
ADDISON        MOSUNNY   93  70  46 SW7       29.95F HX  99
MESQUITE       MOSUNNY   91  70  49 SW7       29.96  HX  97
LANCASTER      MOSUNNY   92  70  48 SW6       29.97F HX  97
$$

TXZ091>094-102>105-117-120-121-131>134-292200-
NORTH CENTRAL TEXAS

CITY           SKY/WX    TMP DP  RH WIND       PRES   REMARKS
SHRMAN/DENISON SUNNY     95  71  46 S10       29.93F HX 102
GAINESVILLE    SUNNY     91  71  53 S10G18    29.95F HX  97
BOWIE          SUNNY     94  69  43 S10G17    29.95F HX  99
BRIDGEPORT     MOSUNNY   93  72  50 S9        29.98F HX 100
DECATUR        MOSUNNY   92  68  45 S12       29.96F HX  96
DENTON         MOSUNNY   92  72  51 S9        29.94F HX  99
MCKINNEY       SUNNY     94  71  47 S9        29.93F HX 101
GREENVILLE     MOSUNNY   95  66  38 SW10      29.94F HX  98
ROCKWALL       MOSUNNY   93  72  50 W6        29.94F HX 101
TERRELL        MOSUNNY   93  72  50 SW12G17   29.95F HX 101
WAXAHACHIE     SUNNY     92  71  49 SW10      29.98F HX  98
CLEBURNE       MOSUNNY   91  73  55 SE7       30.00F HX 100
GRANBURY       MOSUNNY   94  70  46 NW5       29.97F HX 100
$$

TXZ083>090-098>101-113>116-127>130-139>142-154-155-292200-
WESTERN NORTH TEXAS

CITY           SKY/WX    TMP DP  RH WIND       PRES   REMARKS
WICHITA FALLS  MOSUNNY   95  66  38 S9        29.94S HX  98
WF-KICKAPOO    SUNNY     94  64  36 SE14      29.95F HX  96
VERNON         SUNNY     96  51  21 S8        29.97F HX  93
ABILENE        RAIN      80  73  79 E9        30.03S
ABILENE-DYESS  PTSUNNY   92  69  45 E15       30.00F HX  97
CISCO          CLOUDY    84  72  65 E5        30.03F HAZE
BRECKENRIDGE   CLOUDY    84  68  58 S7        29.98F HAZE
GRAHAM         SUNNY     95  69  42 SE8G16    29.93F HX 100
MINERAL WELLS  CLOUDY    86  71  60 SE9       29.96F HX  91
STEPHENVILLE   MOSUNNY   93  66  41 SW5       30.02F HX  95
COMANCHE       PTSUNNY   95  66  38 S9G16     30.00F HX  98
BROWNWOOD      LGT RAIN  93  66  40 SE9G16    29.99F HX  96
COLEMAN        SUNNY     93  63  36 S3        30.01F HX  94
$$

TXZ143>147-156>162-174-175-292200-
CENTRAL TEXAS

CITY           SKY/WX    TMP DP  RH WIND       PRES   REMARKS
WACO           MOSUNNY   87  72  60 S10       29.97F HX  93
WACO-MCGREGOR  MOSUNNY   91  71  51 CALM      29.98F HX  97
HILLSBORO      MOSUNNY   91  68  46 SW5       29.97F HX  95
CORSICANA      MOSUNNY   94  72  48 VRB7      29.97F HX 102
MEXIA          PTSUNNY   89  73  58 SE3       29.97F HX  97
HEARNE         SUNNY     94  68  42 CALM      29.98F HX  99
CAMERON        SUNNY     97  67  36 S5        29.97F HX 101
TEMPLE         SUNNY     95  64  35 VRB3      29.99F HX  97
KILLEEN        MOSUNNY   93  65  40 CALM      29.99F HX  95
KILLEEN-SKYLRK SUNNY     96  68  39 VRB3      29.99F HX 101
FORT HOOD      MOSUNNY   93  61  33 VRB3      29.97F HX  93
GATESVILLE     MOSUNNY   91  70  49 CALM      30.01F HX  97
HAMILTON       PTSUNNY   94  69  43 SE10      30.02F HX  98
LAMPASAS       CLOUDY    92  66  42 S3        30.00F HX  94
$$

TXZ095>097-106>112-122>126-135>138-148>153-164>167-292200-
EAST TEXAS

CITY           SKY/WX    TMP DP  RH WIND       PRES   REMARKS
PARIS          MOSUNNY   95  70  43 SW10G16   29.93F HX 101
SULPHUR SPRNGS CLOUDY    93  71  47 W10G17    29.96S HX  99
MOUNT PLEASANT MOSUNNY   93  68  43 SW10G16   29.95F HX  98
GILMER         CLOUDY    90  72  54 S9        29.95F HX  97
MINEOLA        MOSUNNY   91  75  59 S10       29.96F HX 102
TYLER          MOSUNNY   88  72  58 SW12      29.98F HX  94
LONGVIEW       MOSUNNY   92  70  48 SW16      29.95F HX  97
MARSHALL       MOSUNNY   88  70  56 SW7       29.98F HX  93
ATHENS         CLOUDY    88  72  58 S8        29.96F HX  94
PALESTINE      CLOUDY    90  73  56 S9        30.00F HX  98
JACKSONVILLE   MOSUNNY   90  74  57 S9        30.02F HX  99
HENDERSON      MOSUNNY   90  70  51 W7        29.99F HX  95
CENTER         PTCLDY    91  74  58 S8        29.99F HX 100
NACOGDOCHES    MOSUNNY  N/A N/A N/A W9        29.97F
LUFKIN         MOSUNNY   86  72  62 W10       30.00F HX  92
$$

SUPPLEMENTAL OBSERVATIONS (CENTRAL)

CITY           SKY/WX    TMP DP  RH WIND       PRES   REMARKS
DENISON DAM      N/A     91  73  55 S7          N/A  HX 100
CADDO GRASSLND   N/A     97  72  44 SW7G16      N/A  HX 105
PAT MAYSE LAKE   N/A     91  72  52 S8          N/A  HX  98
GREENVILLE       N/A     95  70  43 S8          N/A  HX 101
CEDAR HILL       N/A     91  73  55 S6          N/A  HX 100
MCGREGOR         N/A     93  70  46 SW6G14      N/A  HX  99
$$

SUPPLEMENTAL OBSERVATIONS (WEST)

CITY           SKY/WX    TMP DP  RH WIND       PRES   REMARKS
MILLERS CREEK    N/A     97  64  34 S8          N/A  HX  99
LBJ GRASSLAND    N/A     93  73  52 S8          N/A  HX 102
HAMBY            N/A     79  70  73 S9G25       N/A
IVIE RESERVOIR   N/A     97  64  34 E6G14       N/A  HX  99
COLORADO BEND    N/A     93  64  38 S8          N/A  HX  95
$$

SUPPLEMENTAL OBSERVATIONS (EAST)

CITY           SKY/WX    TMP DP  RH WIND       PRES   REMARKS
CLARKSVILLE      N/A     93  73  52 S6          N/A  HX 102
TEXARKANA        N/A     86  68  54 W3G12       N/A
LINDEN           N/A     95  73  49 SW5         N/A  HX 105
GILMER           N/A     93  72  49 SW9         N/A  HX 100
HENDERSON        N/A     91  68  46 SW14        N/A  HX  95
LUFKIN           N/A     84  70  61 MISG        N/A
N SABINE NF      N/A     91  73  55 MISG        N/A  HX 100
S SABINE NF      N/A     91  72  52 W3          N/A  HX  98
$$

SUPPLEMENTAL OBSERVATIONS ARE A COLLECTION OF AUTOMATED INSTRUMENTS
THAT ARE MAINTAINED BY A VARIETY OF FEDERAL AND STATE AGENCIES.
CERTAIN ELEMENTS...SUCH AS HUMIDITY VALUES AND SUSTAINED WIND
SPEEDS...MAY BE APPROXIMATED.





USA.gov is the U.S. government's official web portal to all federal, state and local government web resources and services.